| time (UTC) | temp F | wind direction | speed MPH | gust MPH | rain 1hr in | rain 24hr in | rain mn in | humidity % | barometer mb |
| 20260504175338 | 76 | 102 | 1.0 | 1.0 | 0.00 | 0.00 | 0.00 | 32 | 1011.7 |
| 20260504174838 | 76 | 69 | 1.0 | 2.0 | 0.00 | 0.00 | 0.00 | 32 | 1011.9 |
| 20260504174338 | 75 | 98 | 0.0 | 2.0 | 0.00 | 0.00 | 0.00 | 34 | 1011.9 |
| 20260504173837 | 74 | 171 | 2.0 | 3.0 | 0.00 | 0.00 | 0.00 | 34 | 1011.9 |
| 20260504173338 | 74 | 84 | 3.0 | 3.0 | 0.00 | 0.00 | 0.00 | 34 | 1012.3 |
| 20260504172837 | 74 | 241 | 2.0 | 2.0 | 0.00 | 0.00 | 0.00 | 33 | 1012.3 |
| 20260504172337 | 74 | 134 | 1.0 | 1.0 | 0.00 | 0.00 | 0.00 | 34 | 1012.1 |
| 20260504171838 | 75 | 125 | 2.0 | 2.0 | 0.00 | 0.00 | 0.00 | 34 | 1012.1 |
| 20260504171337 | 73 | 133 | 0.0 | 0.0 | 0.00 | 0.00 | 0.00 | 36 | 1012.4 |
| 20260504170838 | 72 | 102 | 2.0 | 4.0 | 0.00 | 0.00 | 0.00 | 36 | 1012.5 |
| 20260504170338 | 73 | 107 | 1.0 | 1.0 | 0.00 | 0.00 | 0.00 | 35 | 1012.6 |
| 20260504160338 | 71 | 102 | 0.0 | 1.0 | 0.00 | 0.00 | 0.00 | 35 | 1013.0 |
| 20260504150838 | 68 | 73 | 2.0 | 2.0 | 0.00 | 0.00 | 0.00 | 36 | 1014.0 |
| 20260504150338 | 68 | 112 | 1.0 | 1.0 | 0.00 | 0.00 | 0.00 | 38 | 1013.6 |
| 20260504140838 | 65 | 170 | 1.0 | 1.0 | 0.00 | 0.00 | 0.00 | 41 | 1013.7 |
| 20260504140337 | 65 | 338 | 0.0 | 1.0 | 0.00 | 0.00 | 0.00 | 40 | 1013.8 |
| 20260504130337 | 58 | 91 | 2.0 | 3.0 | 0.00 | 0.00 | 0.00 | 51 | 1014.4 |
| 20260504110337 | 49 | 116 | 0.0 | 0.0 | 0.00 | 0.00 | 0.00 | 65 | 1014.7 |
| 20260504100337 | 48 | 116 | 0.0 | 0.0 | 0.00 | 0.00 | 0.00 | 63 | 1014.5 |
| 20260504081837 | 50 | 109 | 0.0 | 0.0 | 0.00 | 0.00 | 0.00 | 56 | 1014.9 |
| 20260504081337 | 50 | 100 | 1.0 | 1.0 | 0.00 | 0.00 | 0.00 | 55 | 1015.1 |
| 20260504080837 | 51 | 89 | 1.0 | 2.0 | 0.00 | 0.00 | 0.00 | 55 | 1014.9 |
| 20260504080338 | 51 | 132 | 1.0 | 1.0 | 0.00 | 0.00 | 0.00 | 55 | 1014.9 |
| 20260504070337 | 52 | 122 | 0.0 | 0.0 | 0.00 | 0.00 | 0.00 | 51 | 1014.9 |
| 20260504050337 | 48 | 115 | 0.0 | 0.0 | 0.00 | 0.00 | 0.00 | 57 | 1015.2 |
| 20260504045837 | 48 | 116 | 0.0 | 0.0 | 0.00 | 0.00 | 0.00 | 57 | 1015.4 |
| 20260504045338 | 48 | 116 | 0.0 | 0.0 | 0.00 | 0.00 | 0.00 | 57 | 1015.4 |
| 20260504044837 | 48 | 116 | 0.0 | 0.0 | 0.00 | 0.00 | 0.00 | 56 | 1015.5 |
| 20260504044337 | 48 | 116 | 0.0 | 0.0 | 0.00 | 0.00 | 0.00 | 56 | 1015.6 |
| 20260504043837 | 48 | 111 | 0.0 | 0.0 | 0.00 | 0.00 | 0.00 | 56 | 1015.5 |
| 20260504043337 | 48 | 116 | 0.0 | 0.0 | 0.00 | 0.00 | 0.00 | 55 | 1015.4 |
| 20260504042837 | 48 | 116 | 0.0 | 0.0 | 0.00 | 0.00 | 0.00 | 55 | 1015.4 |
| 20260504042338 | 48 | 113 | 0.0 | 0.0 | 0.00 | 0.00 | 0.00 | 54 | 1015.2 |
| 20260504041837 | 48 | 109 | 0.0 | 0.0 | 0.00 | 0.00 | 0.00 | 54 | 1015.4 |
| 20260504041337 | 48 | 114 | 0.0 | 0.0 | 0.00 | 0.00 | 0.00 | 54 | 1015.2 |
| 20260504040837 | 49 | 114 | 0.0 | 0.0 | 0.00 | 0.00 | 0.00 | 53 | 1015.2 |
| 20260504040338 | 49 | 117 | 0.0 | 0.0 | 0.00 | 0.00 | 0.00 | 53 | 1015.1 |
| 20260504035838 | 49 | 115 | 0.0 | 0.0 | 0.00 | 0.00 | 0.00 | 52 | 1015.3 |
| 20260504035337 | 49 | 116 | 0.0 | 0.0 | 0.00 | 0.00 | 0.00 | 51 | 1015.2 |
| 20260504034837 | 49 | 118 | 0.0 | 0.0 | 0.00 | 0.00 | 0.00 | 51 | 1015.2 |
| 20260504034338 | 49 | 117 | 0.0 | 0.0 | 0.00 | 0.00 | 0.00 | 52 | 1015.1 |
| 20260504033837 | 49 | 116 | 0.0 | 0.0 | 0.00 | 0.00 | 0.00 | 52 | 1015.5 |
| 20260504033338 | 49 | 116 | 0.0 | 0.0 | 0.00 | 0.00 | 0.00 | 52 | 1015.4 |
| 20260504032837 | 48 | 115 | 0.0 | 0.0 | 0.00 | 0.00 | 0.00 | 52 | 1015.3 |
| 20260504032338 | 48 | 114 | 0.0 | 0.0 | 0.00 | 0.00 | 0.00 | 54 | 1015.2 |
| 20260504031837 | 48 | 116 | 0.0 | 0.0 | 0.00 | 0.00 | 0.00 | 53 | 1015.1 |
| 20260504031337 | 49 | 116 | 0.0 | 0.0 | 0.00 | 0.00 | 0.00 | 52 | 1015.4 |
| 20260504030837 | 49 | 119 | 0.0 | 0.0 | 0.00 | 0.00 | 0.00 | 52 | 1015.1 |
| 20260504030337 | 49 | 110 | 0.0 | 0.0 | 0.00 | 0.00 | 0.00 | 52 | 1015.3 |
| 20260504025837 | 49 | 116 | 0.0 | 0.0 | 0.00 | 0.00 | 0.00 | 51 | 1015.4 |
| 20260504025338 | 49 | 116 | 0.0 | 0.0 | 0.00 | 0.00 | 0.00 | 51 | 1015.1 |
| 20260504024838 | 49 | 116 | 0.0 | 0.0 | 0.00 | 0.00 | 0.00 | 51 | 1015.0 |
| 20260504024338 | 50 | 118 | 0.0 | 0.0 | 0.00 | 0.00 | 0.00 | 52 | 1014.9 |
| 20260504023838 | 50 | 113 | 0.0 | 0.0 | 0.00 | 0.00 | 0.00 | 52 | 1015.2 |
| 20260504023338 | 50 | 116 | 0.0 | 0.0 | 0.00 | 0.00 | 0.00 | 52 | 1015.0 |
| 20260504022837 | 50 | 117 | 0.0 | 0.0 | 0.00 | 0.00 | 0.00 | 54 | 1014.9 |
| 20260504022338 | 50 | 121 | 0.0 | 0.0 | 0.00 | 0.00 | 0.00 | 53 | 1015.0 |
| 20260504021837 | 50 | 117 | 0.0 | 0.0 | 0.00 | 0.00 | 0.00 | 53 | 1014.8 |
| 20260504021337 | 50 | 120 | 0.0 | 0.0 | 0.00 | 0.00 | 0.00 | 53 | 1014.9 |
| 20260504020837 | 50 | 118 | 0.0 | 0.0 | 0.00 | 0.00 | 0.00 | 54 | 1014.9 |
| 20260504020337 | 50 | 118 | 0.0 | 0.0 | 0.00 | 0.00 | 0.00 | 54 | 1015.0 |
| 20260504015837 | 50 | 118 | 0.0 | 0.0 | 0.00 | 0.00 | 0.00 | 54 | 1014.9 |
| 20260504015337 | 50 | 122 | 0.0 | 0.0 | 0.00 | 0.00 | 0.00 | 53 | 1014.5 |
| 20260504014837 | 50 | 124 | 0.0 | 0.0 | 0.00 | 0.00 | 0.00 | 53 | 1014.6 |
| 20260504014337 | 51 | 119 | 0.0 | 0.0 | 0.00 | 0.00 | 0.00 | 51 | 1014.7 |
| 20260504013837 | 50 | 122 | 0.0 | 0.0 | 0.00 | 0.00 | 0.00 | 51 | 1014.4 |
| 20260504013338 | 50 | 115 | 0.0 | 0.0 | 0.00 | 0.00 | 0.00 | 51 | 1014.5 |
| 20260504012837 | 51 | 116 | 0.0 | 0.0 | 0.00 | 0.00 | 0.00 | 50 | 1014.3 |
| 20260504012337 | 51 | 116 | 0.0 | 0.0 | 0.00 | 0.00 | 0.00 | 50 | 1014.3 |
| 20260504011838 | 52 | 116 | 0.0 | 0.0 | 0.00 | 0.00 | 0.00 | 49 | 1014.4 |
| 20260504011338 | 51 | 119 | 0.0 | 0.0 | 0.00 | 0.00 | 0.00 | 48 | 1014.4 |
| 20260504010838 | 52 | 115 | 0.0 | 0.0 | 0.00 | 0.00 | 0.00 | 48 | 1014.5 |
| 20260504010338 | 52 | 116 | 0.0 | 0.0 | 0.00 | 0.00 | 0.00 | 47 | 1014.6 |
| 20260504005837 | 52 | 114 | 0.0 | 0.0 | 0.00 | 0.00 | 0.00 | 45 | 1014.5 |
| 20260504005338 | 53 | 118 | 0.0 | 0.0 | 0.00 | 0.00 | 0.00 | 45 | 1014.5 |
| 20260504004837 | 53 | 116 | 0.0 | 0.0 | 0.00 | 0.00 | 0.00 | 43 | 1014.3 |
| 20260504004338 | 54 | 117 | 0.0 | 0.0 | 0.00 | 0.00 | 0.00 | 42 | 1014.1 |
| 20260504003837 | 54 | 119 | 0.0 | 0.0 | 0.00 | 0.00 | 0.00 | 41 | 1014.1 |
| 20260504003338 | 55 | 119 | 0.0 | 0.0 | 0.00 | 0.00 | 0.00 | 42 | 1014.5 |
| 20260504002838 | 55 | 118 | 0.0 | 0.0 | 0.00 | 0.00 | 0.00 | 41 | 1014.2 |
| 20260504002337 | 56 | 117 | 0.0 | 0.0 | 0.00 | 0.00 | 0.00 | 40 | 1014.3 |
| 20260504001838 | 56 | 115 | 0.0 | 0.0 | 0.00 | 0.00 | 0.00 | 39 | 1014.1 |
| 20260504001338 | 57 | 118 | 0.0 | 0.0 | 0.00 | 0.00 | 0.00 | 37 | 1014.1 |
| 20260504000837 | 58 | 106 | 0.0 | 0.0 | 0.00 | 0.00 | 0.00 | 36 | 1014.0 |
| 20260504000337 | 58 | 112 | 0.0 | 0.0 | 0.00 | 0.00 | 0.00 | 35 | 1014.1 |
| 20260503235837 | 59 | 120 | 0.0 | 0.0 | 0.00 | 0.00 | 0.00 | 33 | 1014.0 |
| 20260503235338 | 59 | 120 | 0.0 | 0.0 | 0.00 | 0.00 | 0.00 | 33 | 1014.0 |
| 20260503234838 | 60 | 114 | 0.0 | 0.0 | 0.00 | 0.00 | 0.00 | 33 | 1014.0 |
| 20260503234337 | 60 | 99 | 0.0 | 1.0 | 0.00 | 0.00 | 0.00 | 32 | 1014.0 |
| 20260503233837 | 60 | 115 | 0.0 | 1.0 | 0.00 | 0.00 | 0.00 | 32 | 1013.9 |
| 20260503233337 | 61 | 80 | 1.0 | 1.0 | 0.00 | 0.00 | 0.00 | 32 | 1014.0 |
| 20260503232837 | 61 | 117 | 1.0 | 1.0 | 0.00 | 0.00 | 0.00 | 32 | 1013.9 |
| 20260503232337 | 61 | 120 | 1.0 | 1.0 | 0.00 | 0.00 | 0.00 | 31 | 1013.8 |
| 20260503231837 | 61 | 113 | 1.0 | 2.0 | 0.00 | 0.00 | 0.00 | 30 | 1013.6 |
| 20260503231337 | 61 | 17 | 1.0 | 2.0 | 0.00 | 0.00 | 0.00 | 30 | 1013.9 |
| 20260503230838 | 61 | 73 | 1.0 | 1.0 | 0.00 | 0.00 | 0.00 | 30 | 1013.7 |
| 20260503230337 | 62 | 354 | 2.0 | 3.0 | 0.00 | 0.00 | 0.00 | 29 | 1013.6 |
| 20260503225838 | 62 | 191 | 0.0 | 1.0 | 0.00 | 0.00 | 0.00 | 29 | 1013.8 |
| 20260503225338 | 62 | 139 | 2.0 | 2.0 | 0.00 | 0.00 | 0.00 | 28 | 1013.7 |
| 20260503224838 | 63 | 324 | 1.0 | 2.0 | 0.00 | 0.00 | 0.00 | 28 | 1013.8 |
| 20260503224338 | 63 | 188 | 1.0 | 2.0 | 0.00 | 0.00 | 0.00 | 28 | 1013.7 |
| 20260503223837 | 63 | 126 | 3.0 | 4.0 | 0.00 | 0.00 | 0.00 | 28 | 1013.8 |
| 20260503223337 | 63 | 120 | 2.0 | 4.0 | 0.00 | 0.00 | 0.00 | 28 | 1013.9 |
| 20260503222838 | 63 | 79 | 3.0 | 4.0 | 0.00 | 0.00 | 0.00 | 28 | 1013.8 |
| 20260503222338 | 63 | 195 | 1.0 | 3.0 | 0.00 | 0.00 | 0.00 | 28 | 1013.6 |
| 20260503221838 | 63 | 71 | 2.0 | 3.0 | 0.00 | 0.00 | 0.00 | 28 | 1013.8 |
| 20260503221337 | 63 | 245 | 2.0 | 3.0 | 0.00 | 0.00 | 0.00 | 27 | 1013.8 |
| 20260503220838 | 64 | 238 | 0.0 | 1.0 | 0.00 | 0.00 | 0.00 | 27 | 1013.7 |
| 20260503220338 | 64 | 172 | 1.0 | 2.0 | 0.00 | 0.00 | 0.00 | 28 | 1014.0 |
| 20260503215837 | 64 | 41 | 1.0 | 1.0 | 0.00 | 0.00 | 0.00 | 28 | 1013.9 |
| 20260503215337 | 63 | 173 | 1.0 | 1.0 | 0.00 | 0.00 | 0.00 | 29 | 1013.9 |
| 20260503214838 | 63 | 55 | 1.0 | 1.0 | 0.00 | 0.00 | 0.00 | 28 | 1014.1 |
| 20260503214338 | 63 | 46 | 2.0 | 3.0 | 0.00 | 0.00 | 0.00 | 27 | 1014.1 |
| 20260503213837 | 64 | 183 | 4.0 | 6.0 | 0.00 | 0.00 | 0.00 | 27 | 1014.2 |
| 20260503213338 | 64 | 67 | 3.0 | 4.0 | 0.00 | 0.00 | 0.00 | 29 | 1013.9 |
| 20260503212838 | 65 | 273 | 2.0 | 2.0 | 0.00 | 0.00 | 0.00 | 26 | 1013.9 |
| 20260503212337 | 64 | 326 | 1.0 | 2.0 | 0.00 | 0.00 | 0.00 | 27 | 1014.0 |
| 20260503211837 | 64 | 40 | 2.0 | 4.0 | 0.00 | 0.00 | 0.00 | 28 | 1013.9 |
| 20260503211337 | 63 | 149 | 0.0 | 1.0 | 0.00 | 0.00 | 0.00 | 28 | 1014.2 |
| 20260503210838 | 63 | 90 | 2.0 | 3.0 | 0.00 | 0.00 | 0.00 | 29 | 1014.1 |
| 20260503210337 | 64 | 2 | 5.0 | 7.0 | 0.00 | 0.00 | 0.00 | 28 | 1014.1 |
| 20260503205837 | 63 | 154 | 2.0 | 2.0 | 0.00 | 0.00 | 0.00 | 29 | 1014.2 |
| 20260503205338 | 62 | 108 | 3.0 | 4.0 | 0.00 | 0.00 | 0.00 | 28 | 1014.2 |
| 20260503204837 | 62 | 231 | 1.0 | 2.0 | 0.00 | 0.00 | 0.00 | 27 | 1014.1 |
| 20260503204338 | 63 | 315 | 4.0 | 6.0 | 0.00 | 0.00 | 0.00 | 28 | 1014.3 |
| 20260503203838 | 62 | 355 | 1.0 | 1.0 | 0.00 | 0.00 | 0.00 | 28 | 1014.1 |
| 20260503203337 | 62 | 30 | 4.0 | 7.0 | 0.00 | 0.00 | 0.00 | 29 | 1013.9 |
| 20260503202838 | 63 | 352 | 4.0 | 6.0 | 0.00 | 0.00 | 0.00 | 28 | 1014.0 |
| 20260503202338 | 63 | 87 | 1.0 | 1.0 | 0.00 | 0.00 | 0.00 | 29 | 1014.3 |
| 20260503201837 | 62 | 27 | 4.0 | 6.0 | 0.00 | 0.00 | 0.00 | 29 | 1014.4 |
| 20260503201338 | 62 | 348 | 6.0 | 9.0 | 0.00 | 0.00 | 0.00 | 30 | 1014.3 |
| 20260503200837 | 63 | 18 | 6.0 | 8.0 | 0.00 | 0.00 | 0.00 | 29 | 1014.3 |
| 20260503200337 | 62 | 136 | 1.0 | 1.0 | 0.00 | 0.00 | 0.00 | 30 | 1014.6 |
| 20260503195837 | 63 | 337 | 3.0 | 4.0 | 0.00 | 0.00 | 0.00 | 29 | 1014.6 |
| 20260503195337 | 63 | 349 | 2.0 | 4.0 | 0.00 | 0.00 | 0.00 | 31 | 1015.0 |
| 20260503194837 | 62 | 96 | 1.0 | 1.0 | 0.00 | 0.00 | 0.00 | 31 | 1015.0 |
| 20260503194338 | 62 | 347 | 6.0 | 8.0 | 0.00 | 0.00 | 0.00 | 30 | 1014.9 |
| 20260503193838 | 62 | 163 | 5.0 | 8.0 | 0.00 | 0.00 | 0.00 | 31 | 1015.0 |
| 20260503193338 | 62 | 338 | 1.0 | 2.0 | 0.00 | 0.00 | 0.00 | 31 | 1015.0 |
| 20260503192838 | 62 | 236 | 1.0 | 2.0 | 0.00 | 0.00 | 0.00 | 31 | 1015.3 |
| 20260503192337 | 62 | 357 | 4.0 | 6.0 | 0.00 | 0.00 | 0.00 | 32 | 1015.4 |
| 20260503191837 | 61 | 21 | 2.0 | 2.0 | 0.00 | 0.00 | 0.00 | 31 | 1015.3 |
| 20260503191338 | 61 | 270 | 3.0 | 4.0 | 0.00 | 0.00 | 0.00 | 32 | 1015.6 |
| 20260503190838 | 62 | 115 | 4.0 | 8.0 | 0.00 | 0.00 | 0.00 | 32 | 1015.6 |
| 20260503190337 | 61 | 144 | 0.0 | 1.0 | 0.00 | 0.00 | 0.00 | 34 | 1015.2 |
| 20260503185837 | 60 | 59 | 6.0 | 8.0 | 0.00 | 0.00 | 0.00 | 32 | 1015.6 |
| 20260503185337 | 61 | 357 | 4.0 | 4.0 | 0.00 | 0.00 | 0.00 | 33 | 1015.4 |
| 20260503184837 | 60 | 352 | 3.0 | 6.0 | 0.00 | 0.00 | 0.00 | 33 | 1015.5 |
| 20260503184338 | 60 | 206 | 2.0 | 3.0 | 0.00 | 0.00 | 0.00 | 33 | 1015.5 |
| 20260503183838 | 60 | 38 | 2.0 | 3.0 | 0.00 | 0.00 | 0.00 | 33 | 1015.7 |
| 20260503183337 | 60 | 177 | 1.0 | 3.0 | 0.00 | 0.00 | 0.00 | 34 | 1015.7 |
| 20260503182837 | 60 | 20 | 4.0 | 6.0 | 0.00 | 0.00 | 0.00 | 32 | 1015.7 |
| 20260503182337 | 58 | 130 | 2.0 | 4.0 | 0.00 | 0.00 | 0.00 | 37 | 1015.7 |
| 20260503181838 | 59 | 27 | 2.0 | 3.0 | 0.00 | 0.00 | 0.00 | 35 | 1015.8 |
| 20260503181338 | 59 | 152 | 1.0 | 3.0 | 0.00 | 0.00 | 0.00 | 35 | 1015.8 |
| 20260503180837 | 59 | 139 | 1.0 | 2.0 | 0.00 | 0.00 | 0.00 | 39 | 1015.7 |
| 20260503180337 | 58 | 0 | 10.0 | 16.0 | 0.00 | 0.00 | 0.00 | 34 | 1016.1 |
| 20260503175838 | 58 | 134 | 3.0 | 3.0 | 0.00 | 0.00 | 0.00 | 34 | 1015.7 |